KOREASAT 5A

Last updated on Tue Oct 08 2024 00:02:40 GMT+0000 (Coordinated Universal Time)

1 42984U 17067A 24281.53972812 -.00000348 00000+0 00000+0 0 9996 2 42984 0.0370 67.9077 0001618 134.6529 121.5914 1.00271795 25339
UTC large
Height (km)
Speed (km/s)
/
Latitude / Longitude
Inclination (degrees)
Orbital Period (minutes)
Azimuth
Elevation
Range (km)
Doppler Factor

Next 0 passes for location: London (51.5072 / 0.1276)

Sorry there are no passes over London.